www.pogodaiklimat.ru

Погода и климат >> Архив погоды >> Франция >> Бове


ПОГОДА в Бове

  • Прогноз погоды в Бове
  • Монитор погоды в Бове

АРХИВ ПОГОДЫ в Бове

Время (UTC), дата Ветер
(напр.,м/с)
 
Видим.   Явления Облачность Т
(С)
Тd
(С)
f
(%)
Тe
(С)
Тes
(С)
Комфортность P
(гПа)
Po
(гПа)
Тmin
(С)
Tmax
(С)
R
(мм)
R24
(мм)
S
(см)
01 11.09 З 1 23 км 10/10
[]
+9.4 +8.2 92 +9 +9 1023.1 1010.8
02 11.09 штиль 0 27 км 10/10
[]
+9.8 +8.2 90 +9 +9 1022.9 1010.6
03 11.09 З 1
{2}
25 км 10/0
[]
+10.2 +8.8 91 +11 +11 1023.2 1010.9 0
04 11.09 штиль 0 22 км 10/10
[]
+10.1 +8.0 87 +9 +9 1023.0 1010.7
05 11.09 штиль 0 16 км 10/10
[]
+10.5 +8.8 89 +10 +10 1023.3 1011.0
06 11.09 ЮЗ 1
{4}
8000 м 10/10 1500 м
[]
+12.2 +11.4 95 +12 +12 1023.4 1011.2 +8.1 +18.1 0.0 0
07 11.09 З 2 13 км 10/10 2000 м
[]
+13.5 +11.5 88 +13 +13 1024.1 1011.9
08 11.09 ЮЗ 2 21 км 10/10 2000 м
[]
+14.7 +11.8 83 +14 +14 1024.3 1012.2
09 11.09 ЮЗ 2
{6}
23 км 10/10 1500 м
[]
+15.8 +11.4 75 +16 +16 1024.9 1012.8 0
10 11.09 ЮЗ 3 30 км 10/10 1500 м
[]
+17.3 +10.7 65 +17 +17 1024.7 1012.7
11 11.09 З 4 26 км 9/9 1500 м
[]
+18.8 +8.4 51 +19 +20 1024.7 1012.7
12 11.09 ЮЗ 3
{11}
19 км 10/0 2000 м
[]
+21.2 +8.5 44 +22 +22 комфорт 1024.3 1012.4 0
13 11.09 З 3 20 км 10/10 1140 м
[]
+21.2 +7.8 42 +22 +22 комфорт 1024.3 1012.4
14 11.09 З 3 45 км 9/4 1080 м
[]
+22.1 +8.6 42 +23 +26 комфорт 1024.1 1012.3
15 11.09 З 3
{10}
35 км н/о +22.5 +10.3 46 +24 +24 комфорт 1024.2 1012.4 0
16 11.09 З 3 35 км 9/1 1440 м
[]
+21.9 +11.6 52 +24 +25 комфорт 1024.5 1012.7
17 11.09 З 3 45 км 10/1 1080 м
[]
+21.4 +12.5 57 +24 +24 комфорт 1024.6 1012.8
18 11.09 З 3
{8}
50 км н/о +20.2 +12.9 63 +23 +23 комфорт 1024.9 1013.0 +12.2 +23.1 0
19 11.09 З 2 35 км 9/1 900 м
[]
+19.6 +14.0 70 +22 +22 комфорт 1025.4 1013.5
20 11.09 З 3 35 км н/о +18.7 +14.4 76 +20 +20 1025.9 1013.9
21 11.09 ЮЗ 2
{9}
40 км 9/9 600 м
[]
+18.4 +14.5 78 +20 +20 1026.3 1014.3 0
22 11.09 З 3 35 км 10/10 570 м
[]
+18.6 +14.9 79 +20 +20 1026.3 1014.3
23 11.09 З 3 35 км 10/10 570 м
[]
+18.7 +15.0 79 +20 +20 1026.7 1014.7
00 12.09 З 2
{6}
35 км 10/10 300 м
[]
+18.7 +15.2 80 +20 +20 1027.1 1015.1 0
01 12.09 З 2 35 км 10/10 450 м
[]
+18.5 +15.2 81 +20 +20 1027.4 1015.4
02 12.09 З 2 35 км 10/10 400 м
[]
+18.3 +15.4 83 +19 +19 1027.4 1015.4
03 12.09 ЮЗ 2
{7}
25 км 10/10 300 м
[]
+17.4 +15.9 91 +18 +18 1027.6 1015.6 0
04 12.09 З 2 30 км 10/10 210 м
[]
+17.2 +16.1 93 +18 +18 1027.7 1015.7
05 12.09 З 2 25 км 10/10 210 м
[]
+17.4 +16.1 92 +18 +18 1028.2 1016.2
06 12.09 ЮЗ 2
{5}
7000 м 10/10 200 м
[]
+17.2 +16.2 94 +18 +18 1028.7 1016.7 +17.2 +20.2 0
07 12.09 ЮЗ 2 8000 м 10/10 210 м
[]
+17.4 +16.4 94 +18 +18 1029.4 1017.4
08 12.09 ЮЗ 2 19 км 10/10 210 м
[]
+17.9 +16.8 93 +18 +18 1030.2 1018.2
09 12.09 ЮЗ 2
{6}
13 км 10/10 300 м
[]
+18.6 +16.7 89 +20 +20 1030.7 1018.7 0
10 12.09 ЮЗ 2 7000 м 10/10 240 м
[]
+18.7 +17.0 90 +21 +21 комфорт 1031.2 1019.2
11 12.09 З 2 40 км 10/10 240 м
[]
+20.5 +17.3 82 +25 +25 комфорт 1030.9 1019.0 0.0
12 12.09 ЮЗ 2
{6}
35 км 10/10 600 м
[]
+20.7 +16.5 77 +25 +25 комфорт 1031.0 1019.1 0.0 0
13 12.09 ЮЗ 2 19 км 9/9 570 м
[]
+22.3 +17.2 73 +27 +28 душно 1031.1 1019.2
14 12.09 ЮЗ 2 25 км 10/10 750 м
[]
+22.2 +16.5 70 +26 +26 душно 1030.9 1019.0
15 12.09 ЮЗ 2
{6}
24 км 10/10 600 м
[]
+22.0 +16.5 71 +26 +26 душно 1030.8 1018.9 0
16 12.09 ЮЗ 2 25 км 10/10 800 м
[]
+21.8 +16.5 72 +26 +26 душно 1030.8 1018.9
17 12.09 З 2 35 км 9/9 540 м
[]
+21.2 +16.8 76 +25 +25 комфорт 1031.1 1019.2
18 12.09 СЗ 5
{7}
26 км 9/9 200 м
[]
+19.2 +16.8 86 +21 +21 комфорт 1031.5 1019.5 +17.2 +23.1 0
19 12.09 СЗ 2 27 км 10/10 300 м
[]
+18.6 +16.6 88 +20 +20 1031.7 1019.7
20 12.09 З 2 29 км 10/10 1110 м
[]
+18.2 +15.8 86 +19 +19 1031.8 1019.8
21 12.09 З 1
{3}
29 км н/о +16.5 +15.0 91 +18 +18 1032.0 1019.9 0
22 12.09 СЗ 1 19 км н/о +15.3 +14.2 93 +16 +16 1032.3 1020.1
23 12.09 З 1 10 км н/о +13.7 +12.9 95 +15 +15 1032.2 1019.9
00 13.09 З 1
{2}
1100 м дымка н/о +13.5 +13.0 97 +14 +14 1032.2 1019.9 0
01 13.09 З 1 11 км н/о +13.2 +12.7 97 +13 +13 1032.1 1019.8
02 13.09 З 1 13 км 8/8 540 м
[]
+13.2 +12.7 97 +13 +13 1031.9 1019.6
03 13.09 З 1
{2}
28 км 10/10 300 м
[]
+15.1 +14.8 98 +16 +16 1032.0 1019.8 0
04 13.09 З 1 30 км 10/10 420 м
[]
+15.7 +15.1 96 +17 +17 1032.0 1019.8
05 13.09 СЗ 1 21 км 10/10 400 м
[]
+15.7 +14.7 94 +17 +17 1032.3 1020.1
06 13.09 З 1
{3}
20 км 10/10 300 м
[]
+16.0 +14.7 92 +17 +17 1032.9 1020.7 +12.6 +19.2 0
07 13.09 З 1 19 км 9/9 600 м
[]
+17.2 +14.5 84 +18 +18 1033.2 1021.1
08 13.09 СЗ 1 19 км 10/10 420 м
[]
+17.3 +14.2 82 +18 +18 1033.5 1021.4
09 13.09 ЮЗ 1
{3}
26 км 10/10 300 м
[]
+18.0 +14.5 80 +20 +20 1033.8 1021.7 0
10 13.09 ЮЗ 1 22 км 10/10 420 м
[]
+18.4 +14.9 80 +20 +20 1033.8 1021.7
11 13.09 З 1 24 км 10/10 480 м
[]
+19.7 +15.3 76 +23 +23 комфорт 1033.3 1021.3
12 13.09 З 1
{3}
28 км 10/10 300 м
[]
+20.6 +15.8 74 +25 +25 комфорт 1033.3 1021.3 0
13 13.09 СВ 1 19 км 10/10 540 м
[]
+20.2 +15.4 74 +24 +24 комфорт 1033.2 1021.2
14 13.09 С 1 30 км 10/10 960 м
[]
+20.5 +16.1 76 +25 +25 комфорт 1033.3 1021.3
15 13.09 СВ 1
{4}
27 км 10/10 300 м
[]
+20.9 +16.1 74 +25 +27 комфорт 1032.7 1020.8 0
16 13.09 С 2 21 км 9/4 660 м
[]
+21.9 +16.0 69 +26 +27 душно 1032.4 1020.5
17 13.09 СВ 1 30 км н/о +20.7 +15.3 71 +25 +25 комфорт 1032.5 1020.5
18 13.09 С 2
{5}
40 км 9/9 600 м
[]
+20.3 +15.5 74 +24 +24 комфорт 1032.4 1020.4 +16.1 +22.3 0
19 13.09 С 2 25 км н/о +18.3 +15.0 81 +19 +19 1032.8 1020.7
20 13.09 С 2 30 км н/о +17.6 +14.5 82 +18 +18 1032.9 1020.8
21 13.09 С 3
{8}
40 км н/о +17.0 +12.9 77 +17 +17 1033.3 1021.2 0
22 13.09 СВ 3 40 км н/о +16.2 +12.4 78 +16 +16 1033.5 1021.3
23 13.09 СВ 2 30 км н/о +15.0 +12.1 83 +15 +15 1033.5 1021.3
00 14.09 С 3
{6}
26 км 8/8 1000 м
[]
+14.3 +12.0 86 +14 +14 1033.4 1021.2 0
01 14.09 С 1 22 км н/о +12.9 +11.0 88 +14 +14 1033.5 1021.2
03 14.09 В 1
{3}
11 км н/о +11.6 +10.3 92 +12 +12 1032.6 1020.2 0
04 14.09 В 1 12 км н/о +11.3 +10.0 92 +12 +12 1032.9 1020.5
05 14.09 С 1 11 км н/о +10.9 +10.0 94 +11 +11 1033.0 1020.6
06 14.09 С 1
{3}
10 км н/о +11.2 +10.6 96 +11 +11 1033.1 1020.7 +10.7 +20.3
07 14.09 С 1 10 км н/о +13.4 +12.0 91 +13 +13 1032.9 1020.6
08 14.09 СВ 1 11 км н/о +14.8 +12.3 85 +15 +15 1032.5 1020.3
09 14.09 СВ 2
{5}
10 км н/о +18.2 +13.5 74 +19 +19 1032.1 1020.0 0
10 14.09 В 2 10 км н/о +20.5 +13.7 65 +24 +24 комфорт 1031.7 1019.7
11 14.09 СВ 2 11 км н/о +22.5 +14.1 59 +26 +26 жарко 1030.9 1019.0
12 14.09 В 2
{9}
12 км н/о +23.6 +12.9 51 +26 +26 жарко 1030.1 1018.3 0
13 14.09 СВ 2 16 км н/о +24.4 +12.4 47 +26 +26 жарко 1029.4 1017.6
14 14.09 СВ 2 18 км н/о +24.8 +11.7 44 +26 +26 жарко 1028.8 1017.0
15 14.09 В 2
{8}
18 км н/о +24.9 +11.8 44 +26 +26 жарко 1028.2 1016.4 0
16 14.09 СВ 3 22 км н/о +24.5 +10.7 42 +26 +26 жарко 1027.8 1016.0
17 14.09 СВ 2 30 км н/о +23.5 +10.2 43 +25 +25 комфорт 1027.7 1015.9
18 14.09 СВ 2
{6}
45 км н/о +20.7 +10.2 51 +23 +23 комфорт 1027.8 1015.9 +11.2 +25.1 0
19 14.09 СВ 2 45 км н/о +17.0 +9.2 60 +18 +18 1028.0 1015.9
20 14.09 С 2 45 км н/о +15.9 +8.9 63 +16 +16 1027.8 1015.7
21 14.09 СЗ 1
{3}
40 км н/о +14.5 +8.9 69 +16 +16 1028.0 1015.8 0
22 14.09 СЗ 1 35 км н/о +12.5 +8.8 78 +13 +13 1027.9 1015.6
23 14.09 СЗ 1 28 км н/о +10.9 +8.5 85 +11 +11 1027.4 1015.1
00 15.09 СЗ 2
{4}
28 км н/о +9.6 +7.5 87 +8 +8 1027.3 1014.9 0
01 15.09 СЗ 1 30 км н/о +9.1 +7.5 90 +8 +8 1027.0 1014.6
02 15.09 СЗ 1 26 км н/о +8.7 +7.1 90 +8 +8 1026.5 1014.1
03 15.09 СЗ 1
{3}
22 км н/о +8.0 +6.5 90 +7 +7 1026.4 1013.9 0
04 15.09 СЗ 2 23 км н/о +7.7 +6.6 93 +6 +6 1026.1 1013.6
05 15.09 СЗ 1 26 км н/о +7.6 +5.7 88 +8 +8 1026.0 1013.5
06 15.09 СЗ 1
{2}
24 км н/о +7.6 +6.5 93 +8 +8 1026.1 1013.6 +7.2 +20.6 0
07 15.09 СЗ 1 19 км н/о +11.1 +10.0 93 +11 +11 1025.9 1013.6
08 15.09 З 1 23 км н/о +15.6 +11.2 75 +17 +17 1026.0 1013.9
09 15.09 ЮЗ 1
{2}
45 км н/о +20.4 +11.3 56 +24 +24 комфорт 1025.6 1013.7 0
10 15.09 СЗ 1 45 км н/о +23.3 +11.4 47 +26 +26 жарко 1025.5 1013.7
11 15.09 З 1 22 км н/о +24.9 +11.8 44 +26 +26 жарко 1025.2 1013.5
12 15.09 Ю 1
{5}
35 км н/о +25.6 +11.7 42 +27 +27 жарко 1024.6 1012.9 0
13 15.09 З 1 30 км н/о +26.2 +11.9 41 +28 +28 жарко 1023.9 1012.2
14 15.09 СЗ 1 40 км н/о +26.9 +11.4 38 +28 +28 жарко 1022.9 1011.3
15 15.09 З 2
{6}
19 км н/о +27.0 +10.7 36 +28 +28 жарко 1022.4 1010.8 0
16 15.09 З 1 29 км н/о +26.8 +10.5 36 +28 +28 жарко 1022.1 1010.5
17 15.09 С 2 35 км н/о +25.4 +11.2 41 +27 +27 жарко 1022.1 1010.4
18 15.09 С 2
{6}
35 км н/о +22.2 +12.7 55 +25 +25 комфорт 1022.4 1010.6 +7.5 +27.4 0
19 15.09 С 2 35 км н/о +18.8 +12.1 65 +20 +20 1023.1 1011.2
20 15.09 С 2 18 км н/о +16.9 +11.6 71 +17 +17 1023.3 1011.3
21 15.09 СЗ 1
{4}
25 км н/о +12.8 +9.6 81 +13 +13 1023.6 1011.4 0
22 15.09 СЗ 2 29 км н/о +12.4 +9.6 83 +12 +12 1023.7 1011.5
23 15.09 СЗ 1 29 км н/о +11.5 +9.2 86 +11 +11 1023.6 1011.3
00 16.09 СЗ 1
{2}
21 км н/о +10.4 +8.0 85 +10 +10 1023.3 1011.0 0
01 16.09 СЗ 1 16 км н/о +9.1 +7.5 90 +9 +9 1023.0 1010.6
02 16.09 СЗ 2 13 км н/о +8.4 +7.3 93 +7 +7 1023.0 1010.6
03 16.09 СЗ 1
{4}
12 км н/о +7.7 +6.9 95 +7 +7 1022.4 1010.0 0
04 16.09 СЗ 1 12 км н/о +7.1 +6.4 95 +6 +6 1022.1 1009.7
05 16.09 СЗ 1 10 км н/о +7.7 +7.1 96 +7 +7 1022.0 1009.6
06 16.09 СЗ 1
{3}
14 км н/о +7.0 +5.9 93 +6 +6 1022.4 1010.0 +7.0 +22.1 0.2 0
07 16.09 З 1 13 км н/о +9.9 +9.6 98 +10 +10 1022.3 1010.0
08 16.09 СЗ 1 19 км н/о +13.1 +10.8 86 +14 +14 1022.5 1010.3
09 16.09 З 1
{4}
29 км н/о +18.0 +12.9 72 +19 +19 1022.2 1010.2 0
10 16.09 З 1 19 км н/о +21.5 +14.9 66 +25 +25 комфорт 1021.8 1010.0
11 16.09 З 2 29 км н/о +23.5 +15.3 60 +26 +26 жарко 1021.3 1009.6
12 16.09 З 2
{8}
26 км н/о +24.7 +15.1 55 +28 +28 душно 1020.9 1009.2 0
13 16.09 СЗ 1 26 км н/о +25.5 +14.6 51 +28 +28 жарко 1020.4 1008.8
14 16.09 СЗ 3 23 км н/о +25.6 +15.3 53 +29 +29 душно 1020.2 1008.6
15 16.09 СЗ 3
{8}
21 км н/о +24.3 +16.3 61 +28 +28 душно 1020.2 1008.5 0
16 16.09 СЗ 4 23 км н/о +22.7 +15.5 64 +27 +27 душно 1020.2 1008.5
17 16.09 СЗ 3 22 км н/о +21.0 +14.4 66 +24 +24 комфорт 1020.4 1008.6
18 16.09 СЗ 3
{8}
26 км 9/0
[]
+19.5 +14.3 72 +22 +22 комфорт 1020.8 1008.9 +7.1 +26.1 0
19 16.09 СЗ 2 19 км н/о +17.8 +14.5 81 +18 +18 1021.3 1009.4
20 16.09 СЗ 1 19 км н/о +16.3 +13.8 85 +17 +17 1021.7 1009.7
21 16.09 С 1
{4}
19 км н/о +15.5 +13.7 89 +16 +16 1022.0 1009.9 0
22 16.09 С 1 14 км н/о +14.8 +13.5 92 +15 +15 1022.2 1010.1
23 16.09 СЗ 1 9000 м н/о +14.0 +12.9 93 +14 +14 1022.3 1010.2
00 17.09 СЗ 1
{2}
12 км 10/10 200 м
[]
+15.2 +14.2 94 +16 +16 1022.0 1009.9 0
01 17.09 СЗ 2 12 км 10/9 540 м
[]
+15.7 +14.7 94 +16 +16 1021.7 1009.7
02 17.09 С 1 11 км 10/10 720 м
[]
+16.0 +14.7 92 +17 +17 1021.5 1009.5
03 17.09 С 1
{4}
9000 м 10/10 300 м
[]
+15.9 +14.6 92 +17 +17 1021.7 1009.7 0
04 17.09 С 2 11 км 10/9 500 м
[]
+16.1 +14.3 89 +16 +16 1021.8 1009.8
05 17.09 С 2 9000 м 10/10 300 м
[]
+16.0 +14.2 89 +16 +16 1021.8 1009.8
06 17.09 С 2
{5}
8000 м 10/10 300 м
[]
+15.9 +13.9 88 +16 +16 1022.3 1010.3 +13.7 +19.4 0
07 17.09 СВ 2 8000 м 10/10 240 м
[]
+15.8 +13.5 86 +16 +16 1022.6 1010.6
08 17.09 СВ 1 9000 м н/о +17.7 +13.8 78 +19 +19 1022.8 1010.8
09 17.09 СВ 2
{7}
21 км 9/9 600 м
[]
+18.2 +12.2 68 +19 +20 1023.2 1011.2 0
10 17.09 СВ 2 30 км 10/10 870 м
[]
+18.9 +11.7 63 +20 +20 1023.3 1011.4
11 17.09 С 2 40 км 8/8 1080 м
[]
+20.0 +10.7 55 +22 +24 комфорт 1022.9 1011.0
12 17.09 С 2
{10}
40 км н/о +20.1 +10.8 55 +22 +22 комфорт 1023.0 1011.1 0
13 17.09 С 2 30 км н/о +20.8 +10.0 50 +23 +23 комфорт 1022.6 1010.7
14 17.09 С 2 27 км н/о +21.6 +10.1 48 +23 +23 комфорт 1022.3 1010.5
15 17.09 С 3
{8}
19 км н/о +21.5 +9.4 46 +23 +23 комфорт 1022.1 1010.3 0
16 17.09 С 3 19 км н/о +20.9 +8.5 45 +23 +23 комфорт 1022.2 1010.3
17 17.09 СВ 3 25 км н/о +19.6 +8.9 50 +21 +21 комфорт 1022.4 1010.5
18 17.09 С 3
{10}
18 км н/о +17.3 +8.7 57 +17 +17 1023.0 1011.0 +15.6 +21.8 0
19 17.09 С 3 24 км н/о +15.3 +8.1 62 +15 +15 1023.9 1011.8
20 17.09 С 3 30 км н/о +13.9 +7.4 65 +13 +13 1024.6 1012.4
21 17.09 С 3
{9}
30 км н/о +12.6 +7.1 69 +12 +12 1025.0 1012.8 0
22 17.09 С 3 27 км н/о +11.8 +7.1 73 +10 +10 1025.4 1013.1
23 17.09 СВ 2 25 км н/о +11.0 +6.9 76 +10 +10 1025.7 1013.4
00 18.09 СВ 3
{6}
24 км н/о +10.6 +7.1 79 +9 +9 1026.0 1013.7 0

 

Местоположение метеостанции Бове (Франция): широта 49.47 долгота 2.12 высота над уровнем моря 111 м.

В архиве по умолчанию представлена погода в Бове за последнюю неделю. Архивные данные за месяц целиком и за предыдущие месяцы, начиная с января 2011 года, Вы можете получить, выбрав интересующий диапазон дат из раскрывающегося списка и нажав кнопку "Ввод!".


*Определитесь, кто Вы:
робот инопланетянин человек

Внимание! Время в таблицах - всемирное. Для получения местного времени необходимо прибавить поправку, которая равна 1 ч.

Смотрите также архив погоды в соседних городах и на ближайших метеорологических станциях:

Погода в Крее (Франция) (38 км)
Погода в Кормее (Франция) (44 км)
Погода в Аэропорту Шарль де Голль (Франция) (58 км)
Погода в Ле-Бурже (Франция) (60 км)
Погода в Руанском (Франция) (69 км)
Погода в Меоте (Франция) (70 км)
Погода в Париже (Франция) (74 км)
Погода в Аббевилле (Франция) (76 км)
Погода в Велизи-Вилакубле (Франция) (78 км)
Погода в Трапе (Франция) (78 км)

Пояснения к столбцам:

Ветер - указаны скорость ветра в м/с - средняя за 10 мин, порывы в срок и между сроками (в фигурных скобках) и направление, откуда дует ветер: С - северный, СВ - северо-восточный, В - восточный, ЮВ - юго-восточный, Ю - южный, ЮЗ - юго-западный, З - западный, СЗ - северо-западный.
Видимость - горизонтальная дальность видимости в метрах или километрах. При видимости от 1 до 10 км при отсутствии осадков обычно наблюдается дымка, при ухудшении видимости до 1 км и менее - туман. В сухую погоду видимость может ухудшаться дымом, пылью или мглою.
Явления - указаны атмосферные явления, наблюдавшиеся в срок или в последний час перед сроком; фигурными скобками обозначены явления, наблюдавшиеся между сроками (за 1-3 часа до срока); квадратными скобками обозначены град или гололедные отложения с указанием их диаметра в мм.
Облачность - указаны через наклонную черту общая и нижняя облачность в баллах и высота нижней границы облаков в метрах; квадратными скобками обозначены формы облаков: Ci - перистые, Cs - перисто-слоистые, Cc - перисто-кучевые, Ac - высококучевые, As - высокослоистые, Sc - слоисто-кучевые, Ns - слоисто-дождевые, Cu - кучевые, Cb - кучево-дождевые. Подробнее классификацию облаков см. в Атласе облаков (PDF).
T - Температура воздуха - температура, измеренная на высоте 2 м над землей.
Td - Температура точки росы - температура, при понижении до которой содержащийся в воздухе водяной пар достигнет насыщения.
f - Относительная влажность воздуха - влажноcть воздуха, измеренная на высоте 2 м над землей.
Te - Эффективная температура - температура, которую ощущает одетый по сезону человек в тени. Характеристика душности погоды. При расчете учитывается влияние влажности воздуха и скорости ветра на теплоощущения человека.
Tes - Эффективная температура на солнце - температура, которую ощущает человек, с поправкой на солнечный нагрев. Характеристика знойности погоды. Зависит от высоты солнца над горизонтом, облачности и скорости ветра. Ночью, в пасмурную погоду, а также при ветре 12 м/с и более поправка равна нулю.
P - Атмосферное давление - приведенное к уровню моря атмосферное давление.
Po - Атмосферное давление - измеренное на уровне метеостанции атмосферное давление.
Tmin - Минимальная температура - минимум температуры воздуха на высоте 2 м над землей.
Tmax - Максимальная температура - максимум температуры воздуха на высоте 2 м над землей.
R - Количество осадков - Количество выпавших осадков за период времени, мм. При наведении курсора мыши на число - период времени, за который выпало указанное количество осадков.
R24 - Количество осадков - Количество выпавших осадков за 24 часа, мм.
S - Снежный покров - Высота снежного покрова, см. При наведении курсора мыши на число - состояние снежного покрова и степень покрытия местности в баллах.